Waarnemingen

Advertentie
Mijn weer
Dunkerque, Frankrijk (7010): temperatuur & dauwpunt: 15.01.2017 11:00:00 - 21.01.2017 11:00:00 (CET)Dunkerque, Frankrijk (7010): windsnelheid & windstoten: 15.01.2017 11:00:00 - 21.01.2017 11:00:00 (CET)Dunkerque, Frankrijk (7010): windrichting: 15.01.2017 11:00:00 - 21.01.2017 11:00:00 (CET)Dunkerque, Frankrijk (7010): luchtdruk: 15.01.2017 11:00:00 - 21.01.2017 11:00:00 (CET)Dunkerque, Frankrijk (7010): zicht: 15.01.2017 11:00:00 - 21.01.2017 11:00:00 (CET)Dunkerque, Frankrijk (7010): neerslag: 15.01.2017 11:00:00 - 21.01.2017 11:00:00 (CET)
Datum & Tijd tt [°C] td [°C] ff [km/u] ff [kn] fx [km/u] fx [kn] dd ppp [hPa] vv [km] rr [mm]
21.01.2017 11:00:00 0,7 -4,0 16 9 24 13 ZO 1029,3 - 0,0
21.01.2017 10:00:00 0,2 -4,1 18 10 25 14 ZO 1029,4 - 0,0
21.01.2017 09:00:00 -1,0 -4,4 18 10 26 14 OZO 1029,4 - 0,0
21.01.2017 08:00:00 -0,9 -4,4 15 8 23 12 OZO 1029,4 - 0,0
21.01.2017 07:00:00 -0,8 -4,3 15 8 21 11 O 1029,5 18 0,0
21.01.2017 06:00:00 -0,6 -4,5 11 6 20 11 O 1029,9 - 0,0
21.01.2017 05:00:00 -0,2 -4,5 13 7 21 11 O 1030,0 - 0,0
21.01.2017 04:00:00 0,0 -4,8 15 8 22 12 O 1030,6 18 0,0
21.01.2017 03:00:00 0,3 -4,7 14 8 23 12 O 1030,9 - 0,0
21.01.2017 02:00:00 0,5 -4,5 16 8 23 13 O 1031,1 - 0,0
21.01.2017 01:00:00 0,8 -4,2 16 8 24 13 O 1031,5 - 0,0
21.01.2017 00:00:00 1,0 -4,6 16 8 28 15 O 1031,6 - 0,0
20.01.2017 23:00:00 1,4 -4,7 18 10 31 17 O 1031,6 - 0,0
20.01.2017 22:00:00 1,5 -4,0 22 12 28 15 O 1031,6 - 0,0
20.01.2017 21:00:00 1,8 -3,7 19 11 24 13 O 1031,6 - 0,0
20.01.2017 20:00:00 2,4 -4,4 18 10 27 15 O 1031,6 - 0,0
20.01.2017 19:00:00 2,8 -3,6 17 9 22 12 O 1031,6 18 0,0
20.01.2017 18:00:00 2,7 -3,0 15 8 23 12 O 1031,8 - 0,0
20.01.2017 17:00:00 3,7 -2,5 18 10 28 15 O 1031,9 - 0,0
20.01.2017 16:00:00 4,4 -1,2 18 10 25 14 ONO 1031,9 15 0,0
20.01.2017 15:00:00 4,3 -3,5 15 8 24 13 ONO 1032,2 - 0,0
20.01.2017 14:00:00 4,0 -5,0 16 9 22 12 O 1032,8 - 0,0
20.01.2017 13:00:00 3,5 -4,7 12 6 20 11 O 1033,3 - 0,0
20.01.2017 12:00:00 2,8 -5,8 16 8 25 13 O 1033,8 - 0,0
20.01.2017 11:00:00 2,0 -5,4 16 8 29 15 O 1034,2 - 0,0
20.01.2017 10:00:00 0,8 -4,6 23 12 29 16 O 1034,4 - 0,0
20.01.2017 09:00:00 0,9 -4,0 19 11 31 17 O 1034,3 - 0,0
20.01.2017 08:00:00 0,7 -3,8 23 13 29 15 O 1034,1 - 0,0
20.01.2017 07:00:00 1,5 -2,5 18 10 28 15 O 1034,3 18 0,0
20.01.2017 06:00:00 0,9 -2,5 15 8 26 14 O 1034,6 - 0,0
20.01.2017 05:00:00 1,0 -3,5 17 9 26 14 O 1034,9 - 0,0
20.01.2017 04:00:00 0,3 -4,0 18 10 22 12 O 1035,1 - 0,0
20.01.2017 03:00:00 0,5 -3,8 14 8 23 12 O 1035,4 - 0,0
20.01.2017 02:00:00 0,9 -3,4 18 10 26 14 O 1035,4 - 0,0
20.01.2017 01:00:00 0,5 -3,6 17 9 24 13 O 1035,8 - 0,0
20.01.2017 00:00:00 0,2 -3,7 18 10 23 13 O 1035,9 - 0,0
19.01.2017 23:00:00 0,6 -3,7 15 8 26 14 O 1036,1 - 0,0
19.01.2017 22:00:00 1,3 -3,8 17 9 28 15 O 1036,2 - 0,0
19.01.2017 21:00:00 2,2 -2,9 26 14 37 20 O 1035,8 - 0,0
19.01.2017 20:00:00 2,0 -3,1 26 14 32 18 O 1036,1 - 0,0
19.01.2017 19:00:00 1,8 -3,9 16 9 26 14 O 1036,3 18 0,0
19.01.2017 18:00:00 2,5 -3,4 21 11 36 20 O 1035,7 - 0,0
19.01.2017 17:00:00 3,3 -1,5 27 14 32 18 ONO 1035,6 - 0,0
19.01.2017 16:00:00 3,4 -2,0 25 13 31 17 ONO 1035,9 15 0,0
19.01.2017 15:00:00 3,5 -2,5 23 12 29 16 ONO 1036,1 - 0,0
19.01.2017 14:00:00 3,5 -2,5 20 11 29 16 ONO 1036,4 - 0,0
19.01.2017 13:00:00 3,3 -2,9 21 12 29 15 ONO 1036,7 - 0,0
19.01.2017 12:00:00 2,6 -3,7 22 12 29 16 ONO 1037,1 - 0,0
19.01.2017 11:00:00 2,0 -3,3 21 11 28 15 ONO 1037,7 - 0,0
19.01.2017 10:00:00 0,6 -4,4 17 9 27 14 O 1037,7 - 0,0
19.01.2017 09:00:00 0,5 -3,1 18 10 24 13 O 1037,4 - 0,0
19.01.2017 08:00:00 -0,2 -4,1 16 9 23 13 O 1037,2 - 0,0
19.01.2017 07:00:00 0,4 -2,3 14 7 23 13 O 1036,9 - 0,0
19.01.2017 06:00:00 1,0 -2,4 19 10 24 13 O 1037,1 - 0,0
19.01.2017 05:00:00 0,3 -2,1 10 5 21 11 O 1037,3 - 0,0
19.01.2017 04:00:00 -0,3 -3,2 16 9 23 13 ONO 1037,7 12 0,0
19.01.2017 03:00:00 -0,8 -3,8 16 9 23 12 O 1037,8 - 0,0
19.01.2017 02:00:00 -0,7 -4,1 15 8 21 11 O 1037,7 - 0,0
19.01.2017 01:00:00 -0,3 -4,2 16 8 24 13 O 1038,0 - 0,0
19.01.2017 00:00:00 -0,5 -3,2 16 9 22 12 O 1038,2 - 0,0
18.01.2017 23:00:00 0,0 -3,2 16 9 25 14 O 1038,2 - 0,0
18.01.2017 22:00:00 -0,1 -2,8 13 7 19 11 O 1038,1 - 0,0
18.01.2017 21:00:00 0,3 -3,1 14 7 23 12 O 1038,3 - 0,0
18.01.2017 20:00:00 0,6 -3,9 14 8 25 13 O 1038,4 - 0,0
18.01.2017 19:00:00 0,7 -2,7 11 6 26 14 O 1038,2 - 0,0
18.01.2017 18:00:00 1,1 -3,2 19 10 26 14 ONO 1038,3 - 0,0
18.01.2017 17:00:00 0,9 -4,3 18 10 24 13 ONO 1038,6 - 0,0
18.01.2017 16:00:00 0,7 -3,6 9 5 15 8 NO 1038,8 10 0,0
18.01.2017 15:00:00 0,7 -4,2 14 8 19 11 O 1038,9 - 0,0
18.01.2017 14:00:00 1,0 -3,5 10 5 17 9 ONO 1038,8 - 0,0
18.01.2017 13:00:00 0,9 -3,8 12 7 18 10 O 1039,1 10 0,0
18.01.2017 12:00:00 0,6 -3,9 12 6 16 9 O 1039,4 - 0,0
18.01.2017 11:00:00 0,2 -3,9 9 5 15 8 O 1039,8 - 0,0
18.01.2017 10:00:00 -1,1 -4,1 9 5 15 8 OZO 1039,5 - 0,0
18.01.2017 09:00:00 -2,3 -4,3 8 4 13 7 OZO 1039,4 - 0,0
18.01.2017 08:00:00 -2,4 -4,0 8 4 13 7 O 1039,0 - 0,0
18.01.2017 07:00:00 -2,4 -4,0 9 5 12 7 OZO 1038,8 - 0,0
18.01.2017 06:00:00 -2,2 -3,9 9 5 14 8 OZO 1038,7 - 0,0
18.01.2017 05:00:00 -1,8 -3,5 10 5 13 7 OZO 1039,0 - 0,0
18.01.2017 04:00:00 -2,1 -3,8 10 5 20 11 OZO 1039,2 10 0,0
18.01.2017 03:00:00 -1,8 -3,8 14 8 19 10 OZO 1039,0 - 0,0
18.01.2017 02:00:00 -1,7 -4,0 13 7 20 11 OZO 1038,8 - 0,0
18.01.2017 01:00:00 -1,5 -3,7 14 8 19 11 OZO 1039,1 15 0,0
18.01.2017 00:00:00 -1,7 -3,9 10 5 14 8 OZO 1039,3 - 0,0
17.01.2017 23:00:00 -1,4 -3,4 10 5 14 8 O 1039,1 - 0,0
17.01.2017 22:00:00 -1,5 -3,5 7 4 11 6 O 1039,2 - 0,0
17.01.2017 21:00:00 -1,4 -3,6 6 3 12 7 OZO 1038,9 - 0,0
17.01.2017 20:00:00 -1,3 -3,3 10 5 14 7 OZO 1038,7 - 0,0
17.01.2017 19:00:00 -1,4 -3,1 8 4 11 6 OZO 1038,4 - 0,0
17.01.2017 18:00:00 -1,3 -3,2 8 4 10 6 OZO 1038,2 - 0,0
17.01.2017 17:00:00 -1,3 -3,5 6 3 14 8 O 1038,1 - 0,0
17.01.2017 16:00:00 -0,5 -3,0 10 6 16 9 OZO 1037,7 5 0,0
17.01.2017 15:00:00 -0,5 -2,9 10 6 17 9 ZO 1037,6 - 0,0
17.01.2017 14:00:00 -1,3 -3,3 12 7 16 9 ZO 1037,8 - 0,0
17.01.2017 13:00:00 -1,8 -3,7 9 5 15 8 ZZO 1037,8 5 0,0
17.01.2017 12:00:00 -1,4 -2,5 9 5 18 10 ZZO 1038,3 - 0,0
17.01.2017 11:00:00 -2,8 -3,8 11 6 19 10 ZO 1037,8 - 0,0
17.01.2017 10:00:00 -2,6 -3,4 11 6 18 10 ZZO 1037,2 - 0,0
17.01.2017 09:00:00 -2,1 -2,9 11 6 16 9 OZO 1036,8 - 0,0
17.01.2017 08:00:00 -2,1 -2,9 7 4 16 9 O 1036,1 - 0,0
17.01.2017 07:00:00 -1,9 -2,9 10 6 18 10 OZO 1035,3 5 0,0
17.01.2017 06:00:00 -1,6 -2,7 8 5 13 7 OZO 1035,0 - 0,0
17.01.2017 05:00:00 -1,6 -2,7 10 5 14 8 OZO 1034,6 - 0,0
17.01.2017 04:00:00 -1,3 -2,4 8 5 18 10 O 1034,3 - 0,0
17.01.2017 03:00:00 -0,8 -2,1 13 7 23 12 OZO 1034,3 - 0,0
17.01.2017 02:00:00 -0,6 -2,0 15 8 22 12 OZO 1033,3 - 0,0
17.01.2017 01:00:00 -0,2 -1,6 14 8 24 13 OZO 1033,3 - 0,0
17.01.2017 00:00:00 0,3 -1,1 16 9 23 12 ZO 1033,0 - 0,0
16.01.2017 23:00:00 0,8 -0,7 13 7 21 11 OZO 1032,6 - 0,0
16.01.2017 22:00:00 1,3 -0,2 17 9 24 13 ZO 1031,8 12 0,0
16.01.2017 21:00:00 2,1 0,8 13 7 20 11 OZO 1031,0 - 0,0
16.01.2017 20:00:00 2,6 1,6 12 6 16 9 O 1030,3 - 0,0
16.01.2017 19:00:00 3,3 2,3 7 4 11 6 OZO 1029,6 12 0,0
16.01.2017 18:00:00 3,1 2,2 0 0 6 3 N 1029,1 - 0,0
16.01.2017 17:00:00 3,4 2,7 3 2 6 3 NO 1028,7 - 0,0
16.01.2017 16:00:00 3,8 3,2 0 0 8 4 N 1028,3 7 0,0
16.01.2017 15:00:00 3,6 3,0 4 2 7 4 ZZW 1027,9 - 0,0
16.01.2017 14:00:00 3,2 2,8 4 2 14 8 Z 1027,8 - 0,0
16.01.2017 13:00:00 2,3 1,9 9 5 13 7 ZZW 1027,9 0,4 0,0
16.01.2017 12:00:00 2,0 1,6 9 5 16 9 ZZO 1028,0 - 0,2
16.01.2017 11:00:00 1,6 1,2 6 3 15 8 ZW 1027,6 - 0,0
16.01.2017 10:00:00 0,9 0,5 9 5 14 7 ZZW 1027,5 0,2 0,0
16.01.2017 09:00:00 0,8 0,4 6 4 10 5 ZZW 1027,2 - 0,0
16.01.2017 08:00:00 0,7 0,3 5 3 9 5 ZZW 1026,5 - 0,0
16.01.2017 07:00:00 0,6 0,0 6 3 10 5 ZZW 1026,0 0,1 0,0
16.01.2017 06:00:00 0,6 0,0 5 3 10 6 ZZW 1025,9 - 0,0
16.01.2017 05:00:00 1,3 0,6 7 4 9 5 Z 1025,8 - 0,0
16.01.2017 04:00:00 1,4 0,7 4 2 11 6 ZO 1025,4 7 0,0
16.01.2017 03:00:00 1,3 0,6 0 0 11 6 N 1025,3 - 0,0
16.01.2017 02:00:00 1,5 0,6 4 2 10 5 ONO 1025,1 - 0,0
16.01.2017 01:00:00 1,6 0,7 5 3 18 10 Z 1024,6 12 0,0
16.01.2017 00:00:00 2,0 1,1 12 7 18 10 ZO 1023,7 - 0,0
15.01.2017 23:00:00 2,3 1,4 11 6 17 9 OZO 1023,6 - 0,0
15.01.2017 22:00:00 2,1 1,2 11 6 19 11 ZO 1023,0 6 0,0
15.01.2017 21:00:00 2,1 1,4 13 7 22 12 ZZO 1022,4 - 0,0
15.01.2017 20:00:00 2,3 1,6 14 8 24 13 ZZO 1021,9 - 0,0
15.01.2017 19:00:00 2,2 1,3 17 9 26 14 ZZO 1021,5 6 0,0
15.01.2017 18:00:00 2,2 1,3 17 9 25 14 ZZO 1020,8 - 0,2
15.01.2017 17:00:00 2,2 1,3 16 9 27 15 Z 1020,8 - 1,0
15.01.2017 16:00:00 2,6 1,6 16 8 24 13 Z 1021,2 12 1,2
15.01.2017 15:00:00 2,8 1,5 13 7 23 12 Z 1021,4 - 1,2
15.01.2017 14:00:00 3,3 1,8 11 6 26 14 ZZW 1021,7 - 0,2
15.01.2017 13:00:00 4,0 1,9 13 7 29 15 ZW 1022,3 - 0,2
15.01.2017 12:00:00 4,2 0,7 22 12 34 19 W 1022,9 - 0,0
15.01.2017 11:00:00 5,1 1,2 18 10 29 15 WNW 1022,9 - 0,0

tt = temperatuur
td = dauwpunt
ff = windsnelheid
fx = windstoten
dd = windrichting
ppp = luchtdruk
vv = zicht
rr = neerslag

Weerstations in de omgeving